Amarillo, TX

6:34 PM CST on December 14, 2019 (GMT -0600)
Amarillo International

Weather History for KAMA - June, 2019

Change the Weather History Date:

Friday, June 7, 2019

  Actual Average Record
Temperature  
Mean Temperature 68 °F 72 °F  
Max Temperature 82 °F 86 °F 102 °F (2011)
Min Temperature 54 °F 59 °F 42 °F (1915)
Degree Days  
Heating Degree Days 0 0  
Month to date heating degree days 0 5  
Since 1 June heating degree days 0 5  
Since 1 July heating degree days 4102 4176  
Cooling Degree Days 3 8  
Month to date cooling degree days 34 48  
Year to date cooling degree days 96 173  
Since 1 June cooling degree days 34 48  
Growing Degree Days 18 (Base 50)    
Moisture  
Dew Point 58 °F    
Average Humidity 73    
Maximum Humidity 100    
Minimum Humidity 45    
Precipitation  
Precipitation 0.00 in 0.13 in 1.80 in (1960)
Month to date precipitation 2.50 0.81  
Year to date precipitation 10.28 7.17  
Snow  
Snow 0.00 in 0.00 in 0.00 in ()
Month to date snowfall 0.0 0.0  
Since 1 June snowfall 0.0 0.0  
Since 1 July snowfall 8.1 17.8  
Snow Depth 0.00 in    
Sea Level Pressure  
Sea Level Pressure 29.88 in    
Wind  
Wind Speed 7 mph (NNE)    
Max Wind Speed 28 mph    
Max Gust Speed 35 mph    
Visibility 7 miles    
Events Fog    
T = Trace of Precipitation, MM = Missing Value Source: NWS Daily Summary

Daily Weather History Graph

Daily Weather History Graph

Search for Another Location

Airport or City:

Astronomy

Jun. 07, 2019 Rise Set
Actual Time 6:32 AM CDT 8:59 PM CDT
Civil Twilight 6:02 AM CDT 9:29 PM CDT
Nautical Twilight 5:26 AM CDT 10:05 PM CDT
Astronomical Twilight 4:46 AM CDT 10:45 PM CDT
Moon 10:49 AM CDT (6/7) 12:20 AM CDT (6/7)
Length of Visible Light 15h 26m
Length of Day
14h 27m
Waxing Crescent, 22% of the Moon is Illuminated
Jun 7
Waxing Crescent
Jun 10
First Quarter
Jun 17
Full
Jun 25
Last Quarter
Jul 2
New

Hourly Weather History & Observations

Time (CDT) Temp. Heat Index Dew Point Humidity Pressure Visibility Wind Dir Wind Speed Gust Speed Precip Events Conditions
1:53 AM 60.1 °F - 55.9 °F 86% 29.84 in - North 3.5 mph - N/A   Unknown
2:53 AM 60.1 °F - 55.9 °F 86% 29.84 in 10.0 mi NNW 4.6 mph - N/A   Clear
3:53 AM 59.0 °F - 55.0 °F 87% 29.87 in 10.0 mi NNW 5.8 mph - N/A   Clear
4:53 AM 55.9 °F - 54.0 °F 93% 29.86 in 10.0 mi North 8.1 mph - N/A   Clear
5:53 AM 55.9 °F - 54.0 °F 93% 29.88 in 8.0 mi NNW 5.8 mph - N/A   Partly Cloudy
6:27 AM 57.0 °F - 55.0 °F 93% 29.99 in 0.8 mi North 4.6 mph - N/A   Scattered Clouds
6:30 AM 57.0 °F - 55.0 °F 93% 29.99 in 0.2 mi North 3.5 mph - N/A   Mist
6:53 AM 55.9 °F - 55.0 °F 97% 29.88 in 0.2 mi NNE 4.6 mph - N/A Fog Fog
7:16 AM 57.9 °F - 57.0 °F 97% 29.99 in 0.2 mi North 4.6 mph - N/A Fog Fog
7:53 AM 59.0 °F - 57.9 °F 96% 29.87 in 0.2 mi NNW 3.5 mph - N/A Fog Fog
8:40 AM 60.1 °F - 59.0 °F 96% 30.00 in 0.2 mi North 4.6 mph - N/A Fog Fog
8:53 AM 61.0 °F - 60.1 °F 97% 29.88 in 0.2 mi North 3.5 mph - N/A Fog Fog
9:30 AM 63.0 °F - 61.0 °F 93% 30.01 in 2.0 mi Calm Calm - N/A   Mostly Cloudy
9:38 AM 64.0 °F - 61.0 °F 90% 30.01 in 3.0 mi North 3.5 mph - N/A   Scattered Clouds
9:53 AM 66.0 °F - 61.0 °F 84% 30.01 in 9.0 mi NNW 3.5 mph - N/A   Clear
10:53 AM 71.1 °F - 59.0 °F 66% 30.00 in 10.0 mi Variable 4.6 mph - N/A   Clear
11:53 AM 73.0 °F - 57.9 °F 59% 30.01 in 10.0 mi South 5.8 mph - N/A   Clear
12:53 PM 75.0 °F - 57.9 °F 55% 30.00 in 10.0 mi Calm Calm - N/A   Clear
1:53 PM 77.0 °F - 55.9 °F 48% 29.99 in 10.0 mi Calm Calm - N/A   Clear
2:53 PM 79.0 °F - 59.0 °F 50% 29.83 in 10.0 mi North - - N/A   Clear
3:53 PM 80.1 °F 80.4 °F 57.0 °F 45% 29.81 in 10.0 mi Variable 6.9 mph - N/A   Clear
4:53 PM 81.0 °F 81.1 °F 57.9 °F 45% 29.80 in 10.0 mi SSW 4.6 mph - N/A   Clear
5:53 PM 81.0 °F 81.0 °F 57.0 °F 44% 29.79 in 10.0 mi SE 5.8 mph - N/A   Clear
6:53 PM 81.0 °F 81.1 °F 57.9 °F 45% 29.77 in 10.0 mi SSE 9.2 mph - N/A   Clear
7:53 PM 77.0 °F - 59.0 °F 54% 29.78 in 10.0 mi SE 10.4 mph - N/A   Clear
8:53 PM 73.0 °F - 60.1 °F 64% 29.78 in 10.0 mi SE 10.4 mph - N/A   Clear
9:53 PM 71.1 °F - 61.0 °F 70% 29.78 in 10.0 mi SE 12.7 mph - N/A   Clear
10:53 PM 68.0 °F - 60.1 °F 76% 29.80 in 10.0 mi SE 11.5 mph - N/A   Clear
11:53 PM 68.0 °F - 60.1 °F 76% 29.79 in 10.0 mi ESE 13.8 mph - N/A   Clear